[Iaude] MPEC J241: 2024 JM8 [a=1.37,e=0.18,i=24.4,H=24.2]

mpec at cfa.harvard.edu mpec at cfa.harvard.edu
Fri May 10 01:58:18 EDT 2024


M.P.E.C. 2024-J241                                 Issued 2024 May 10, 05:56 UT

     The Minor Planet Electronic Circulars contain information on unusual
         minor planets, routine data on comets and natural satellites,
         and occasional editorial announcements.  They are published
    on behalf of Division F of the International Astronomical Union by the
          Minor Planet Center, Smithsonian Astrophysical Observatory,
                          Cambridge, MA 02138, U.S.A.
			  
             Prepared using the Tamkin Foundation Computer Network

                              MPC at CFA.HARVARD.EDU
            URL https://www.minorplanetcenter.net/    ISSN 1523-6714

                                    2024 JM8                                    


Observations:
     K24J08M* C2024 05 08.31583713 43 44.739-15 37 28.05         21.13wXEJ241F52
     K24J08M  C2024 05 08.32632813 43 46.313-15 35 48.39         21.31wXEJ241F52
     K24J08M  C2024 05 08.33683213 43 47.854-15 34 10.10         21.09wXEJ241F52
     K24J08M  C2024 05 08.42610513 44 01.086-15 20 05.48         21.48GVEJ241F52
     K24J08M 7C2024 05 08.93863913 45 29.330-14 00 04.31         20.4 GVEJ241Z84
     K24J08M 7C2024 05 08.94361713 45 30.026-13 59 18.35         20.5 GVEJ241Z84
     K24J08M KC2024 05 09.21731613 46 16.435-13 16 51.49         22.16GVEJ241I52
     K24J08M KC2024 05 09.21972613 46 16.756-13 16 29.14         20.95GVEJ241I52
     K24J08M KC2024 05 09.22213113 46 17.134-13 16 07.18         20.98GVEJ241I52
     K24J08M KC2024 05 09.22453613 46 17.497-13 15 44.68         20.93GVEJ241I52
     K24J08M  C2024 05 09.36133713 46 40.027-12 54 32.55         21.28GVEJ241F51
     K24J08M KC2024 05 10.22853813 49 02.080-10 43 12.80         21.42GVEJ241I52
     K24J08M KC2024 05 10.23320913 49 02.730-10 42 30.80         21.71GVEJ241I52

Observer details:
F51 Pan-STARRS 1, Haleakala.  Observers J. Herman, T. Lowe, P. Minguez, A.
    Schultz, I. Smith.  Measurers K. Chambers, T. de Boer, J. Fairlamb, H.
    Gao, M. Huber, C.-C. Lin, E. Magnier, Y. Ramanjooloo, R. Wainscoat, R.
    Weryk.  1.8-m Ritchey-Chretien + CCD.
F52 Pan-STARRS 2, Haleakala.  Observers J. Herman, T. Lowe, P. Minguez, A.
    Schultz, I. Smith.  Measurers K. Chambers, T. de Boer, J. Fairlamb, H.
    Gao, M. Huber, C.-C. Lin, E. Magnier, Y. Ramanjooloo, R. Wainscoat, R.
    Weryk.  1.8-m Ritchey-Chretien + CCD.
I52 Steward Observatory, Mt. Lemmon Station.  Observer H. Groeller.  Measurers
    T. Beuden, V. F. Carvajal, D. Fay, J. B. Fazekas, D. C. Fuls, A. R. Gibbs,
    A. D. Grauer, H. Groeller, J. K. Hogan, R. A. Kowalski, S. M. Larson, G.
    J. Leonard, D. Rankin, R. L. Seaman, F. C. Shelly, K. W. Wierzchos.  1.0-m
    prime focus + CCD.
Z84 Calar Alto-Schmidt.  Observers R. Kresken, F. Ocana, M. Micheli, L.
    Conversi.  Measurers F. Ocana, M. Micheli.  0.8-m f/3 Schmidt + CCD.

Orbital elements:
2024 JM8                                                 Earth MOID = 0.1461 AU
Epoch 2024 Mar. 31.0 TT = JDT 2460400.5                 MPC                     
M   0.44643              (2000.0)            P               Q                  
n   0.61376764     Peri.  324.13287     -0.94362127     +0.13751012             
a   1.3713029      Node   226.83344     -0.11111974     -0.98843759             
e   0.1798374      Incl.   24.38355     -0.31181935     -0.06389132             
P   1.61           H   24.27          G   0.15           U   9                  
Residuals in seconds of arc
240508 F52  0.1+  0.3+    240508 Z84  0.4-  0.1-    240509 F51  0.2-  0.2-
240508 F52  0.2+  0.9+    240509 I52  0.2+  0.0     240510 I52  0.1+  0.1-
240508 F52  0.1-  0.0     240509 I52  0.3-  0.1+    240510 I52  0.1-  0.1+
240508 F52  0.0   0.2-    240509 I52  0.1+  0.1-
240508 Z84  0.3+  0.3+    240509 I52  0.3+  0.1+

Ephemeris:
2024 JM8                 a,e,i = 1.37, 0.18, 24                  q = 1.1247
Date    TT    R. A. (2000) Decl.     Delta      r    Elong.  Phase     V
2024 04 10    11 34 58.5 -69 15 13   0.2357  1.1271   116.5    52.7    23.3
...
2024 04 25    12 55 37.0 -49 38 39   0.1655  1.1384   140.4    34.3    22.1
...
2024 05 03    13 27 06.0 -30 03 45   0.1496  1.1479   157.7    19.4    21.4
...
2024 05 09    13 45 39.3 -13 49 56   0.1545  1.1565   160.7    16.7    21.4
2024 05 10    13 48 24.5 -11 16 59   0.1568  1.1581   159.7    17.6    21.5
2024 05 11    13 51 04.7 -08 48 57   0.1595  1.1597   158.3    18.8    21.6
...
2024 05 17    14 05 34.2 +03 53 35   0.1825  1.1699   147.9    27.3    22.1
...
2024 05 25    14 21 46.7 +15 11 52   0.2266  1.1850   135.5    36.8    22.9
...
2024 06 09    14 46 44.0 +24 54 24   0.3290  1.2177   121.0    45.6    24.0

A. U. Tomatic                (C) Copyright 2024 MPC           M.P.E.C. 2024-J241





More information about the Iaude mailing list